ETH318 HAAB-HKJK

Flight info

Callsign ETH318
Flight time 1h 35m
Altitude 40000
Route SHALA3A SHALA UM308 RUDOL/N0480F410 UM308 LOTAS LOTAS3A
Aircraft A359/H-SDE2E3GHIJ1J3J4J5LM1ORWXY/LB1D1

Departure

Time 2026-05-07 10:22
Airport Addis Ababa Bole International Airport (HAAB)

Arrival

Time 2026-05-07 11:57
Airport Jomo Kenyatta International Airport (HKJK)
Time Latitude Longitude Altitude Speed Heading
2026-05-07 09:28 8.98009 38.79549 7625 ft 0 kts 162°
2026-05-07 10:07 8.98013 38.79548 7625 ft 4 kts 162°
2026-05-07 10:07 8.98039 38.79540 7627 ft 4 kts 162°
2026-05-07 10:08 8.98063 38.79532 7631 ft 4 kts 166°
2026-05-07 10:08 8.98084 38.79529 7630 ft 2 kts 190°
2026-05-07 10:08 8.98094 38.79533 7631 ft 2 kts 235°
2026-05-07 10:08 8.98099 38.79542 7633 ft 2 kts 251°
2026-05-07 10:09 8.98102 38.79551 7632 ft 0 kts 254°
2026-05-07 10:13 8.98102 38.79548 7632 ft 2 kts 254°
2026-05-07 10:13 8.98087 38.79508 7628 ft 11 kts 244°
2026-05-07 10:13 8.98060 38.79426 7625 ft 13 kts 255°
2026-05-07 10:13 8.98037 38.79338 7625 ft 13 kts 255°
2026-05-07 10:14 8.98015 38.79254 7625 ft 12 kts 254°
2026-05-07 10:14 8.97991 38.79169 7625 ft 13 kts 254°
2026-05-07 10:14 8.97963 38.79081 7625 ft 13 kts 252°
2026-05-07 10:14 8.97937 38.78989 7625 ft 14 kts 254°
2026-05-07 10:15 8.97909 38.78892 7625 ft 15 kts 254°
2026-05-07 10:15 8.97884 38.78807 7625 ft 5 kts 254°
2026-05-07 10:15 8.97873 38.78768 7625 ft 6 kts 254°
2026-05-07 10:15 8.97862 38.78754 7625 ft 1 kts 206°
2026-05-07 10:16 8.97830 38.78749 7625 ft 9 kts 181°
2026-05-07 10:16 8.97792 38.78723 7625 ft 9 kts 236°
2026-05-07 10:16 8.97760 38.78629 7625 ft 16 kts 253°
2026-05-07 10:16 8.97739 38.78557 7625 ft 6 kts 254°
2026-05-07 10:17 8.97756 38.78520 7625 ft 7 kts 324°
2026-05-07 10:17 8.97792 38.78476 7625 ft 10 kts 283°
2026-05-07 10:17 8.97776 38.78408 7625 ft 12 kts 253°
2026-05-07 10:17 8.97749 38.78312 7625 ft 15 kts 254°
2026-05-07 10:18 8.97723 38.78219 7625 ft 12 kts 251°
2026-05-07 10:18 8.97687 38.78197 7625 ft 4 kts 183°
2026-05-07 10:18 8.97656 38.78198 7625 ft 4 kts 171°
2026-05-07 10:18 8.97624 38.78205 7625 ft 5 kts 165°
2026-05-07 10:19 8.97584 38.78217 7625 ft 9 kts 163°
2026-05-07 10:19 8.97523 38.78235 7625 ft 10 kts 163°
2026-05-07 10:19 8.97455 38.78255 7625 ft 10 kts 163°
2026-05-07 10:19 8.97422 38.78283 7625 ft 4 kts 110°
2026-05-07 10:20 8.97422 38.78306 7625 ft 3 kts 83°
2026-05-07 10:20 8.97427 38.78325 7625 ft 3 kts 75°
2026-05-07 10:20 8.97435 38.78355 7626 ft 5 kts 75°
2026-05-07 10:20 8.97446 38.78392 7626 ft 5 kts 73°
2026-05-07 10:21 8.97456 38.78427 7626 ft 6 kts 73°
2026-05-07 10:21 8.97471 38.78477 7626 ft 10 kts 73°
2026-05-07 10:21 8.97514 38.78628 7626 ft 48 kts 74°
2026-05-07 10:21 8.97672 38.79173 7623 ft 112 kts 74°
2026-05-07 10:22 8.97944 38.80114 7686 ft 160 kts 75°
2026-05-07 10:22 8.98259 38.81157 8647 ft 149 kts 75°
2026-05-07 10:22 8.98526 38.82141 9306 ft 142 kts 78°
2026-05-07 10:22 8.98542 38.83080 9811 ft 143 kts 107°
2026-05-07 10:23 8.97952 38.83903 10285 ft 160 kts 147°
2026-05-07 10:23 8.96808 38.83922 10787 ft 177 kts 195°
2026-05-07 10:23 8.95601 38.83601 11061 ft 188 kts 171°
2026-05-07 10:23 8.94357 38.83779 11335 ft 202 kts 163°
2026-05-07 10:24 8.92894 38.83991 11612 ft 225 kts 167°
2026-05-07 10:24 8.91234 38.84142 11926 ft 250 kts 170°
2026-05-07 10:24 8.89559 38.84080 12462 ft 265 kts 185°
2026-05-07 10:24 8.87734 38.83585 12888 ft 287 kts 194°
2026-05-07 10:25 8.85793 38.82916 13246 ft 306 kts 195°
2026-05-07 10:25 8.83703 38.82183 13873 ft 314 kts 195°
2026-05-07 10:25 8.81860 38.81547 14426 ft 320 kts 195°
2026-05-07 10:25 8.79718 38.80815 15103 ft 324 kts 195°
2026-05-07 10:26 8.77560 38.80078 15730 ft 331 kts 195°
2026-05-07 10:26 8.75479 38.79371 16325 ft 337 kts 195°
2026-05-07 10:26 8.73239 38.78610 17002 ft 341 kts 196°
2026-05-07 10:26 8.70964 38.77839 17532 ft 351 kts 196°
2026-05-07 10:27 8.69374 38.77300 17744 ft 362 kts 196°
2026-05-07 10:27 8.67065 38.76516 18019 ft 376 kts 197°
2026-05-07 10:27 8.64539 38.75665 18297 ft 390 kts 197°
2026-05-07 10:27 8.61929 38.74785 18625 ft 399 kts 197°
2026-05-07 10:28 8.59431 38.73942 19107 ft 403 kts 197°
2026-05-07 10:28 8.56772 38.73039 19637 ft 407 kts 197°
2026-05-07 10:28 8.54036 38.72112 20212 ft 409 kts 197°
2026-05-07 10:28 8.51327 38.71194 20752 ft 413 kts 197°
2026-05-07 10:29 8.48912 38.70378 21275 ft 415 kts 198°
2026-05-07 10:29 8.46128 38.69437 21868 ft 417 kts 198°
2026-05-07 10:29 8.43364 38.68504 22419 ft 421 kts 198°
2026-05-07 10:30 8.37941 38.66672 23439 ft 427 kts 198°
2026-05-07 10:30 8.35137 38.65726 23869 ft 431 kts 198°
2026-05-07 10:30 8.32298 38.64768 24342 ft 432 kts 198°
2026-05-07 10:30 8.29568 38.63846 24838 ft 434 kts 198°
2026-05-07 10:31 8.26697 38.62878 25329 ft 437 kts 198°
2026-05-07 10:31 8.23828 38.61911 25808 ft 440 kts 198°
2026-05-07 10:31 8.21231 38.61035 26254 ft 442 kts 198°
2026-05-07 10:31 8.18281 38.60041 26800 ft 444 kts 198°
2026-05-07 10:32 8.15368 38.59058 27323 ft 446 kts 198°
2026-05-07 10:32 8.12408 38.58061 27824 ft 449 kts 198°
2026-05-07 10:32 8.09835 38.57193 28251 ft 451 kts 198°
2026-05-07 10:32 8.06737 38.56149 28774 ft 454 kts 198°
2026-05-07 10:33 8.03710 38.55129 29237 ft 457 kts 198°
2026-05-07 10:33 8.01078 38.54242 29652 ft 459 kts 198°
2026-05-07 10:33 7.97945 38.53186 30114 ft 462 kts 198°
2026-05-07 10:33 7.94842 38.52141 30484 ft 465 kts 198°
2026-05-07 10:34 7.91756 38.51102 30789 ft 470 kts 198°
2026-05-07 10:34 7.88824 38.50115 31111 ft 473 kts 198°
2026-05-07 10:34 7.85677 38.49055 31471 ft 476 kts 198°
2026-05-07 10:34 7.82525 38.47994 31818 ft 479 kts 199°
2026-05-07 10:35 7.79566 38.46998 32131 ft 481 kts 199°
2026-05-07 10:35 7.76362 38.45920 32488 ft 484 kts 199°
2026-05-07 10:35 7.73145 38.44837 32817 ft 487 kts 199°
2026-05-07 10:35 7.69969 38.43769 33143 ft 489 kts 199°
2026-05-07 10:36 7.66929 38.42747 33450 ft 492 kts 199°
2026-05-07 10:36 7.63624 38.41636 33762 ft 494 kts 199°
2026-05-07 10:36 7.60352 38.40535 34033 ft 497 kts 199°
2026-05-07 10:36 7.57369 38.39532 34288 ft 498 kts 199°
2026-05-07 10:37 7.53940 38.38378 34579 ft 499 kts 199°
2026-05-07 10:37 7.50659 38.37272 34999 ft 497 kts 199°
2026-05-07 10:37 7.47424 38.36188 35422 ft 495 kts 199°
2026-05-07 10:37 7.44397 38.35251 35779 ft 494 kts 197°
2026-05-07 10:38 7.41022 38.34331 36169 ft 492 kts 195°
2026-05-07 10:38 7.37708 38.33473 36544 ft 491 kts 195°
2026-05-07 10:38 7.34608 38.32676 36885 ft 490 kts 195°
2026-05-07 10:38 7.31261 38.31806 37281 ft 488 kts 195°
2026-05-07 10:39 7.27976 38.30939 37657 ft 487 kts 196°
2026-05-07 10:39 7.24713 38.30068 38026 ft 485 kts 196°
2026-05-07 10:39 7.21662 38.29243 38353 ft 484 kts 196°
2026-05-07 10:39 7.18389 38.28350 38686 ft 483 kts 196°
2026-05-07 10:40 7.15149 38.27462 38957 ft 482 kts 196°
2026-05-07 10:40 7.12088 38.26628 39204 ft 481 kts 196°
2026-05-07 10:40 7.09049 38.25806 39434 ft 480 kts 196°
2026-05-07 10:40 7.05790 38.24924 39678 ft 480 kts 196°
2026-05-07 10:41 7.02570 38.24052 39887 ft 480 kts 196°
2026-05-07 10:41 6.99340 38.23176 39930 ft 480 kts 196°
2026-05-07 10:41 6.93549 38.21606 39935 ft 479 kts 196°
2026-05-07 10:42 6.87287 38.19908 39930 ft 479 kts 196°
2026-05-07 10:42 6.80850 38.18164 39930 ft 479 kts 196°
2026-05-07 10:43 6.74583 38.16466 39926 ft 479 kts 195°
2026-05-07 10:43 6.68158 38.14724 39926 ft 479 kts 196°
2026-05-07 10:44 6.61872 38.13021 39924 ft 478 kts 196°
2026-05-07 10:44 6.55444 38.11282 39924 ft 478 kts 196°
2026-05-07 10:45 6.49300 38.09625 39928 ft 479 kts 196°
2026-05-07 10:45 6.43267 38.07979 39926 ft 479 kts 196°
2026-05-07 10:46 6.36810 38.06210 39927 ft 479 kts 196°
2026-05-07 10:46 6.30732 38.04551 39933 ft 479 kts 196°
2026-05-07 10:47 6.24297 38.02795 39938 ft 480 kts 196°
2026-05-07 10:47 6.18157 38.01128 39940 ft 480 kts 196°
2026-05-07 10:48 6.11699 37.99366 39945 ft 480 kts 196°
2026-05-07 10:48 6.05563 37.97693 39949 ft 480 kts 196°
2026-05-07 10:49 5.99443 37.96028 39941 ft 480 kts 195°
2026-05-07 10:49 5.92965 37.94265 39950 ft 480 kts 195°
2026-05-07 10:50 5.86793 37.92588 39950 ft 481 kts 195°
2026-05-07 10:50 5.80400 37.90850 39953 ft 481 kts 196°
2026-05-07 10:51 5.74166 37.89152 39951 ft 481 kts 195°
2026-05-07 10:51 5.67699 37.87393 39951 ft 482 kts 195°
2026-05-07 10:52 5.61491 37.85705 39953 ft 482 kts 195°
2026-05-07 10:52 5.55208 37.83998 39951 ft 482 kts 195°
2026-05-07 10:53 5.48732 37.82238 39949 ft 482 kts 195°
2026-05-07 10:53 5.42441 37.80530 39943 ft 482 kts 195°
2026-05-07 10:54 5.35967 37.78772 39943 ft 482 kts 195°
2026-05-07 10:54 5.29665 37.77061 39934 ft 482 kts 195°
2026-05-07 10:55 5.23144 37.75291 39926 ft 482 kts 195°
2026-05-07 10:55 5.16878 37.73591 39925 ft 482 kts 195°
2026-05-07 10:56 5.10591 37.71884 39920 ft 482 kts 195°
2026-05-07 10:56 5.04109 37.70125 39916 ft 482 kts 195°
2026-05-07 10:57 4.97635 37.68369 39916 ft 482 kts 195°
2026-05-07 10:57 4.91157 37.66615 39915 ft 482 kts 195°
2026-05-07 10:58 4.84862 37.64909 39914 ft 482 kts 195°
2026-05-07 10:58 4.78387 37.63152 39910 ft 482 kts 195°
2026-05-07 10:59 4.71917 37.61397 39910 ft 482 kts 195°
2026-05-07 10:59 4.65620 37.59691 39909 ft 482 kts 195°
2026-05-07 11:00 4.59157 37.57940 39910 ft 482 kts 195°
2026-05-07 11:00 4.52682 37.56185 39907 ft 482 kts 196°
2026-05-07 11:01 4.46205 37.54431 39902 ft 482 kts 196°
2026-05-07 11:01 4.39913 37.52728 39900 ft 482 kts 196°
2026-05-07 11:02 4.33437 37.50975 39897 ft 482 kts 196°
2026-05-07 11:02 4.26967 37.49224 39891 ft 482 kts 196°
2026-05-07 11:03 4.20717 37.47533 39886 ft 482 kts 196°
2026-05-07 11:03 4.14238 37.45780 39885 ft 482 kts 196°
2026-05-07 11:04 4.07759 37.44027 39880 ft 482 kts 196°
2026-05-07 11:04 4.01269 37.42272 39867 ft 483 kts 196°
2026-05-07 11:05 3.94988 37.40505 39870 ft 483 kts 198°
2026-05-07 11:05 3.88548 37.38569 39867 ft 483 kts 197°
2026-05-07 11:06 3.82109 37.36654 39859 ft 483 kts 197°
2026-05-07 11:06 3.75804 37.34788 39857 ft 483 kts 197°
2026-05-07 11:07 3.69355 37.32881 39857 ft 483 kts 197°
2026-05-07 11:07 3.62906 37.30976 39849 ft 483 kts 197°
2026-05-07 11:08 3.56499 37.29083 39848 ft 483 kts 197°
2026-05-07 11:08 3.50229 37.27232 39841 ft 484 kts 197°
2026-05-07 11:09 3.43772 37.25325 39840 ft 484 kts 197°
2026-05-07 11:09 3.37315 37.23420 39838 ft 484 kts 197°
2026-05-07 11:10 3.31015 37.21560 39837 ft 484 kts 197°
2026-05-07 11:10 3.24558 37.19655 39839 ft 484 kts 197°
2026-05-07 11:11 3.18106 37.17751 39836 ft 484 kts 197°
2026-05-07 11:11 3.11648 37.15845 39837 ft 484 kts 197°
2026-05-07 11:12 3.05363 37.13992 39836 ft 483 kts 197°
2026-05-07 11:12 2.98912 37.12089 39837 ft 483 kts 197°
2026-05-07 11:13 2.92459 37.10186 39839 ft 483 kts 197°
2026-05-07 11:13 2.86174 37.08332 39842 ft 483 kts 197°
2026-05-07 11:14 2.80815 37.06752 39843 ft 484 kts 197°
2026-05-07 11:14 2.74352 37.04846 39843 ft 484 kts 197°
2026-05-07 11:15 2.67890 37.02941 39846 ft 484 kts 197°
2026-05-07 11:15 2.61594 37.01085 39849 ft 484 kts 197°
2026-05-07 11:16 2.55134 36.99181 39848 ft 484 kts 197°
2026-05-07 11:16 2.48681 36.97279 39853 ft 484 kts 197°
2026-05-07 11:17 2.42232 36.95381 39855 ft 484 kts 197°
2026-05-07 11:17 2.35963 36.93532 39860 ft 484 kts 197°
2026-05-07 11:18 2.29506 36.91629 39862 ft 484 kts 197°
2026-05-07 11:18 2.23044 36.89726 39866 ft 484 kts 197°
2026-05-07 11:19 2.16778 36.87880 39871 ft 484 kts 197°
2026-05-07 11:19 2.10320 36.85978 39875 ft 484 kts 197°
2026-05-07 11:20 2.03863 36.84077 39875 ft 484 kts 197°
2026-05-07 11:20 1.97434 36.82184 39877 ft 484 kts 197°
2026-05-07 11:21 1.91136 36.80328 39876 ft 484 kts 197°
2026-05-07 11:21 1.84676 36.78426 39871 ft 484 kts 197°
2026-05-07 11:22 1.78209 36.76522 39873 ft 484 kts 197°
2026-05-07 11:22 1.71937 36.74676 39869 ft 484 kts 197°
2026-05-07 11:23 1.65473 36.72773 39872 ft 484 kts 197°
2026-05-07 11:23 1.59013 36.70871 39871 ft 484 kts 197°
2026-05-07 11:24 1.52548 36.68969 39876 ft 484 kts 197°
2026-05-07 11:24 1.46281 36.67124 39880 ft 484 kts 197°
2026-05-07 11:25 1.39815 36.65222 39884 ft 484 kts 197°
2026-05-07 11:25 1.33355 36.63320 39891 ft 484 kts 197°
2026-05-07 11:26 1.27057 36.61467 39900 ft 484 kts 197°
2026-05-07 11:26 1.20595 36.59564 39907 ft 484 kts 197°
2026-05-07 11:27 1.14139 36.57664 39915 ft 483 kts 197°
2026-05-07 11:27 1.07694 36.55770 39920 ft 483 kts 197°
2026-05-07 11:28 1.01388 36.53922 39921 ft 483 kts 197°
2026-05-07 11:28 0.98087 36.53306 39932 ft 484 kts 186°
2026-05-07 11:28 0.94733 36.53041 39930 ft 483 kts 184°
2026-05-07 11:29 0.88018 36.52607 39937 ft 484 kts 184°
2026-05-07 11:29 0.81498 36.52170 39944 ft 484 kts 185°
2026-05-07 11:30 0.74777 36.51716 39952 ft 484 kts 185°
2026-05-07 11:30 0.68064 36.51260 39960 ft 483 kts 185°
2026-05-07 11:31 0.61355 36.50803 39973 ft 483 kts 185°
2026-05-07 11:31 0.54838 36.50359 39979 ft 483 kts 185°
2026-05-07 11:32 0.44861 36.49678 39990 ft 483 kts 185°
2026-05-07 11:33 0.38136 36.49220 39998 ft 483 kts 185°
2026-05-07 11:33 0.31544 36.48770 40007 ft 484 kts 185°
2026-05-07 11:34 0.24891 36.48316 40014 ft 484 kts 185°
2026-05-07 11:34 0.18410 36.47874 39758 ft 483 kts 185°
2026-05-07 11:34 0.15052 36.47644 39536 ft 487 kts 185°
2026-05-07 11:35 0.11879 36.47427 39326 ft 489 kts 185°
2026-05-07 11:35 0.08504 36.47198 38903 ft 486 kts 185°
2026-05-07 11:35 0.05124 36.46968 38271 ft 486 kts 185°
2026-05-07 11:35 0.01755 36.46738 37629 ft 486 kts 185°
2026-05-07 11:36 -0.01626 36.46506 36980 ft 487 kts 185°
2026-05-07 11:36 -0.05015 36.46273 36331 ft 488 kts 185°
2026-05-07 11:36 -0.08394 36.46043 35676 ft 489 kts 185°
2026-05-07 11:36 -0.11620 36.45823 35140 ft 488 kts 184°
2026-05-07 11:37 -0.14992 36.45596 34634 ft 486 kts 184°
2026-05-07 11:37 -0.18402 36.45361 34112 ft 484 kts 184°
2026-05-07 11:37 -0.21716 36.45134 33536 ft 482 kts 184°
2026-05-07 11:37 -0.24800 36.44924 33050 ft 479 kts 184°
2026-05-07 11:38 -0.28118 36.44699 32514 ft 476 kts 184°
2026-05-07 11:38 -0.31424 36.44474 32005 ft 474 kts 184°
2026-05-07 11:38 -0.34512 36.44264 31520 ft 471 kts 184°
2026-05-07 11:38 -0.37776 36.44041 31022 ft 469 kts 184°
2026-05-07 11:39 -0.40973 36.43824 30515 ft 467 kts 184°
2026-05-07 11:39 -0.44206 36.43606 29974 ft 465 kts 184°
2026-05-07 11:39 -0.47162 36.43401 29477 ft 462 kts 184°
2026-05-07 11:39 -0.50325 36.43180 28966 ft 459 kts 184°
2026-05-07 11:40 -0.53523 36.42965 28446 ft 455 kts 184°
2026-05-07 11:40 -0.56333 36.42776 28007 ft 452 kts 184°
2026-05-07 11:40 -0.59500 36.42559 27493 ft 449 kts 184°
2026-05-07 11:40 -0.62639 36.42344 26984 ft 446 kts 184°
2026-05-07 11:41 -0.65732 36.42136 26480 ft 443 kts 184°
2026-05-07 11:41 -0.68618 36.41940 26000 ft 441 kts 183°
2026-05-07 11:41 -0.71665 36.41732 25499 ft 438 kts 184°
2026-05-07 11:41 -0.74697 36.41525 24982 ft 436 kts 183°
2026-05-07 11:42 -0.77538 36.41329 24502 ft 434 kts 183°
2026-05-07 11:42 -0.80541 36.41122 23994 ft 432 kts 183°
2026-05-07 11:42 -0.83541 36.40920 23425 ft 430 kts 183°
2026-05-07 11:42 -0.86513 36.40717 22877 ft 427 kts 183°
2026-05-07 11:43 -0.89301 36.40526 22385 ft 423 kts 183°
2026-05-07 11:43 -0.92223 36.40326 21868 ft 419 kts 183°
2026-05-07 11:43 -0.95118 36.40128 21353 ft 415 kts 183°
2026-05-07 11:43 -0.97818 36.39941 20872 ft 412 kts 183°
2026-05-07 11:44 -1.00668 36.39748 20363 ft 408 kts 183°
2026-05-07 11:44 -1.03487 36.39557 19856 ft 405 kts 183°
2026-05-07 11:44 -1.06259 36.39368 19356 ft 402 kts 183°
2026-05-07 11:44 -1.08880 36.39189 18886 ft 400 kts 182°
2026-05-07 11:45 -1.11651 36.39001 18377 ft 398 kts 182°
2026-05-07 11:45 -1.14402 36.38814 17807 ft 394 kts 182°
2026-05-07 11:45 -1.16982 36.38637 17341 ft 390 kts 182°
2026-05-07 11:45 -1.19587 36.38459 16866 ft 387 kts 182°
2026-05-07 11:46 -1.22320 36.38272 16358 ft 383 kts 183°
2026-05-07 11:46 -1.24996 36.38090 15865 ft 379 kts 183°
2026-05-07 11:46 -1.27432 36.37924 15526 ft 372 kts 183°
2026-05-07 11:46 -1.29972 36.37751 15388 ft 359 kts 183°
2026-05-07 11:47 -1.32414 36.37708 15247 ft 344 kts 173°
2026-05-07 11:47 -1.34519 36.38344 15038 ft 333 kts 150°
2026-05-07 11:47 -1.36241 36.39835 14563 ft 319 kts 124°
2026-05-07 11:47 -1.37228 36.41759 14100 ft 315 kts 112°
2026-05-07 11:48 -1.38074 36.43769 13701 ft 314 kts 112°
2026-05-07 11:48 -1.38888 36.45658 13351 ft 311 kts 113°
2026-05-07 11:48 -1.39757 36.47629 12995 ft 307 kts 114°
2026-05-07 11:48 -1.40621 36.49564 12661 ft 303 kts 114°
2026-05-07 11:49 -1.41431 36.51369 12337 ft 300 kts 114°
2026-05-07 11:49 -1.42286 36.53267 12005 ft 298 kts 114°
2026-05-07 11:49 -1.43132 36.55140 11674 ft 296 kts 114°
2026-05-07 11:49 -1.43981 36.57020 11334 ft 295 kts 114°
2026-05-07 11:50 -1.44769 36.58765 11022 ft 294 kts 114°
2026-05-07 11:50 -1.45608 36.60633 10691 ft 292 kts 114°
2026-05-07 11:50 -1.46444 36.62482 10315 ft 293 kts 114°
2026-05-07 11:50 -1.47238 36.64231 9953 ft 291 kts 114°
2026-05-07 11:51 -1.48068 36.66066 9604 ft 289 kts 114°
2026-05-07 11:51 -1.48630 36.67959 9357 ft 281 kts 96°
2026-05-07 11:51 -1.48433 36.69856 9146 ft 274 kts 71°
2026-05-07 11:51 -1.47590 36.71423 8994 ft 266 kts 55°
2026-05-07 11:52 -1.46503 36.72888 8830 ft 258 kts 53°
2026-05-07 11:52 -1.45407 36.74268 8674 ft 250 kts 53°
2026-05-07 11:52 -1.44438 36.75568 8516 ft 242 kts 55°
2026-05-07 11:52 -1.43474 36.76909 8380 ft 235 kts 56°
2026-05-07 11:53 -1.42537 36.78209 8288 ft 224 kts 56°
2026-05-07 11:53 -1.41648 36.79434 8189 ft 212 kts 55°
2026-05-07 11:53 -1.40839 36.80543 8033 ft 204 kts 55°
2026-05-07 11:53 -1.40021 36.81661 7784 ft 198 kts 55°
2026-05-07 11:54 -1.39229 36.82747 7536 ft 189 kts 56°
2026-05-07 11:54 -1.38510 36.83738 7318 ft 179 kts 56°
2026-05-07 11:54 -1.37814 36.84695 7106 ft 167 kts 56°
2026-05-07 11:54 -1.37152 36.85602 6907 ft 156 kts 56°
2026-05-07 11:55 -1.36535 36.86456 6745 ft 150 kts 57°
2026-05-07 11:55 -1.35953 36.87254 6530 ft 152 kts 57°
2026-05-07 11:55 -1.35341 36.88106 6284 ft 149 kts 57°
2026-05-07 11:55 -1.34730 36.88947 6049 ft 149 kts 55°
2026-05-07 11:56 -1.34156 36.89731 5850 ft 144 kts 54°
2026-05-07 11:56 -1.33565 36.90535 5644 ft 143 kts 55°
2026-05-07 11:56 -1.32980 36.91342 5470 ft 143 kts 55°
2026-05-07 11:56 -1.32394 36.92147 5335 ft 139 kts 53°
2026-05-07 11:57 -1.31928 36.92780 5318 ft 87 kts 53°
2026-05-07 11:57 -1.31678 36.93116 5309 ft 34 kts 53°
2026-05-07 11:57 -1.31584 36.93250 5307 ft 9 kts 63°
2026-05-07 11:57 -1.31575 36.93295 5308 ft 7 kts 84°
2026-05-07 11:58 -1.31583 36.93335 5310 ft 6 kts 121°
2026-05-07 11:58 -1.31630 36.93375 5306 ft 14 kts 145°
2026-05-07 11:58 -1.31711 36.93432 5306 ft 14 kts 144°
2026-05-07 11:58 -1.31788 36.93480 5310 ft 10 kts 168°
2026-05-07 11:59 -1.31837 36.93451 5310 ft 10 kts 230°
2026-05-07 11:59 -1.31892 36.93378 5310 ft 16 kts 233°
2026-05-07 11:59 -1.31966 36.93279 5312 ft 20 kts 233°
2026-05-07 11:59 -1.32051 36.93164 5314 ft 21 kts 233°
2026-05-07 12:00 -1.32134 36.93049 5318 ft 20 kts 235°
2026-05-07 12:00 -1.32187 36.92976 5319 ft 19 kts 233°
2026-05-07 12:00 -1.32269 36.92863 5320 ft 21 kts 233°
2026-05-07 12:00 -1.32354 36.92747 5335 ft 21 kts 234°
2026-05-07 12:01 -1.32441 36.92627 5336 ft 22 kts 234°
2026-05-07 12:01 -1.32534 36.92501 5335 ft 23 kts 233°
2026-05-07 12:01 -1.32615 36.92391 5335 ft 10 kts 234°
2026-05-07 12:01 -1.32649 36.92352 5336 ft 8 kts 218°
2026-05-07 12:02 -1.32694 36.92357 5336 ft 14 kts 152°
2026-05-07 12:02 -1.32774 36.92374 5333 ft 10 kts 207°
2026-05-07 12:02 -1.32837 36.92311 5336 ft 17 kts 225°
2026-05-07 12:02 -1.32940 36.92239 5336 ft 19 kts 203°
2026-05-07 12:03 -1.33047 36.92217 5336 ft 10 kts 181°
2026-05-07 12:03 -1.33110 36.92228 5331 ft 7 kts 146°
2026-05-07 12:03 -1.33117 36.92252 5333 ft 4 kts 99°
2026-05-07 12:03 -1.33115 36.92281 5333 ft 4 kts 77°
2026-05-07 12:04 -1.33110 36.92308 5334 ft 0 kts 77°